This is the latest recevied weather packets stored in our database for station/object SQ9IWE-13. If no packets are shown the sender has not sent any weather packets the latest 10 day(s).
| Time | Temp. | Humidity | Pressure | Rain* | Wind** | Luminosity | Snow |
|---|---|---|---|---|---|---|---|
| 1777738201 | 21.11° C | 37% | 1020.4 hPa | - | - | - | - |
| 1777737601 | 21.11° C | 36% | 1020.5 hPa | - | - | - | - |
| 1777737001 | 21.11° C | 35% | 1020.5 hPa | - | - | - | - |
| 1777735801 | 21.67° C | 35% | 1020.7 hPa | - | - | - | - |
| 1777735201 | 21.67° C | 35% | 1020.7 hPa | - | - | - | - |
| 1777734601 | 21.67° C | 34% | 1020.8 hPa | - | - | - | - |
| 1777734001 | 21.67° C | 33% | 1020.9 hPa | - | - | - | - |
| 1777733401 | 22.22° C | 34% | 1020.8 hPa | - | - | - | - |
| 1777732801 | 22.22° C | 34% | 1021 hPa | - | - | - | - |
| 1777732200 | 22.22° C | 33% | 1021 hPa | - | - | - | - |
| 1777731600 | 22.22° C | 34% | 1021.1 hPa | - | - | - | - |
| 1777731001 | 21.67° C | 34% | 1021.1 hPa | - | - | - | - |
| 1777730401 | 21.67° C | 34% | 1021.2 hPa | - | - | - | - |
| 1777729800 | 22.22° C | 34% | 1021.2 hPa | - | - | - | - |
| 1777728600 | 22.22° C | 34% | 1021.4 hPa | - | - | - | - |
| 1777728000 | 21.67° C | 34% | 1021.5 hPa | - | - | - | - |
| 1777727400 | 22.22° C | 34% | 1021.6 hPa | - | - | - | - |
| 1777726800 | 22.78° C | 34% | 1021.8 hPa | - | - | - | - |
| 1777726200 | 23.33° C | 34% | 1021.9 hPa | - | - | - | - |
| 1777725600 | 22.78° C | 34% | 1022.2 hPa | - | - | - | - |
| 1777725000 | 22.22° C | 33% | 1022.3 hPa | - | - | - | - |
| 1777724401 | 23.33° C | 32% | 1022.4 hPa | - | - | - | - |
| 1777723801 | 22.78° C | 31% | 1022.5 hPa | - | - | - | - |
| 1777723201 | 23.33° C | 34% | 1022.6 hPa | - | - | - | - |
| 1777722601 | 25° C | 32% | 1022.7 hPa | - | - | - | - |
* Rain since midnight (hover to see other rain measurements)
** Current wind speed in m/s (hover to see current wind gust speed)